Regional Weather Roundup
Issued by NWS

Home | Current Version | Previous Version | Graphics & Text | Print | Product List | Glossary On
Versions: 1 2 3 4 5 6 7 8 9 10 11 12 13 14 15 16 17 18 19 20 21 22 23 24 25 26 27 28 29 30 31 32 33 34 35 36 37 38 39 40 41 42 43 44 45 46 47 48 49 50
000
ASUS43 KMPX 192201
RWRMN
WEATHER ROUNDUP FOR MINNESOTA
NATIONAL WEATHER SERVICE TWIN CITIES/CHANHASSEN MN
500 PM CDT THU OCT 19 2017


NOTE: "FAIR" INDICATES FEW OR NO CLOUDS BELOW 12,000 FEET WITH NO
SIGNIFICANT WEATHER AND/OR OBSTRUCTIONS TO VISIBILITY. N/A MEANS
CURRENT SKY AND/OR WEATHER CONDITIONS ARE NOT AVAILABLE.

MNZ060>063-068>070-192300-
   Twin Cities Metro

CITY           SKY/WX    TMP DP  RH WIND       PRES   REMARKS
TWIN CITIES    MOSUNNY   72  35  25 S16       29.95F
ST PAUL        SUNNY     71  35  26 S15       29.95F
CRYSTAL        SUNNY     72  33  24 S16       29.93F
BLAINE         MOSUNNY   73  36  25 S13G22    29.94F
LAKEVILLE      SUNNY     70  37  30 S10G16    29.96F
EDEN PRAIRIE   SUNNY     72  35  25 S12       29.93F
SOUTH ST PAUL  SUNNY     73  34  24 S10G17    29.95F
LAKE ELMO      FAIR      72  37  28 S12G23    29.97F
$$
MNZ001>005-007-008-013>017-022>024-027-028-192300-
   Northwest Minnesota

CITY           SKY/WX    TMP DP  RH WIND       PRES   REMARKS
BEMIDJI        SUNNY     69  38  32 SW12G21   29.82S
HALLOCK        SUNNY     68  34  28 S15       29.71S
ROSEAU         CLOUDY    68  39  34 S14       29.74S
WARROAD        CLOUDY    68  41  37 S10       29.75S
CROOKSTON      SUNNY     72  37  28 S14G22    29.75F
FOSSTON        SUNNY     70  37  30 S14G23    29.80S
DETROIT LAKES  SUNNY     70  37  30 S15       29.83S
MOORHEAD       SUNNY     73  39  29 S15       29.78S
PARK RAPIDS    SUNNY     69  39  33 S12       29.84F
MAHNOMEN       FAIR      71  41  33 S17G23    29.79S
$$
MNZ006-009>011-018-025>026-192300-
   North Central Minnesota

CITY           SKY/WX    TMP DP  RH WIND       PRES   REMARKS
BAUDETTE       CLOUDY    67  36  31 S9        29.77F
FLAG ISLAND    CLOUDY    55  43  62 SE12      29.73F
INTL FALLS     CLOUDY    66  34  30 SW6G17    29.81F
WASKISH        MOSUNNY   66  41  39 SW9       29.79S
BIG FORK       MOSUNNY   70  36  28 S9G18     29.83F
LONGVILLE      CLOUDY    70  34  26 S10G21    29.86S
GRAND RAPIDS   CLOUDY    68  35  29 S12G20    29.88F
CRANE LAKE     CLOUDY    63  30  29 S3        29.86F
ORR            CLOUDY    66  28  24 S6        29.82F
COOK           CLOUDY    66  34  30 SW10      29.86F
WALKER         FAIR      69  35  29 SW14G20   29.83F
$$
MNZ012-019>021-037-192300-
   Northeast Minnesota

CITY           SKY/WX    TMP DP  RH WIND       PRES   REMARKS
DULUTH         CLOUDY    65  33  30 SW12      29.92F
ELY            MOSUNNY   63  28  27 S6        29.88F
HIBBING        CLOUDY    66  32  28 S13G22    29.87F
EVELETH        CLOUDY    65  15  14 S8        29.89F
DULUTH HARBOR  MOSUNNY   70  36  28 S10       29.91F
TWO HARBORS    CLOUDY    64  39  39 CALM      29.90F
SILVER BAY     PTSUNNY   63  30  29 S6        29.91S
GRAND MARAIS     N/A     52  36  54 W6        29.92F
G MARAIS ARPRT CLOUDY    54  25  32 S7        29.94F
$$
MNZ029>031-032-039>041-046>048-054>057-064-192300-
   West Central Minnesota

CITY           SKY/WX    TMP DP  RH WIND       PRES   REMARKS
FERGUS FALLS   SUNNY     72  45  37 S14       29.81F
WHEATON        SUNNY     75  43  31 S13       29.81S
MORRIS         SUNNY     75  45  33 S15       29.83S
ALEXANDRIA     SUNNY     71  41  33 S14       29.87F
ELBOW LAKE     FAIR      71  45  39 S12       29.83F
WADENA         SUNNY     70  41  35 S13       29.85S
GLENWOOD       SUNNY     72  43  35 S12       29.88S
APPLETON       SUNNY     75  39  27 S16G22    29.83S
BENSON         SUNNY     73  43  33 S14       29.86F
ORTONVILLE     SUNNY     75  46  35 N10G17    29.82S
MADISON        SUNNY     79  43  27 S15G21    29.83F
WILLMAR        FAIR      73  43  33 S9G16     29.90S
$$
MNZ033>034-036-042>043-049>051-058-059-192300-
   Central Minnesota

CITY           SKY/WX    TMP DP  RH WIND       PRES   REMARKS
ST CLOUD       SUNNY     70  36  28 S18       29.91F
SAUK CENTRE    FAIR      71  41  34 S17       29.89S
PAYNESVILLE    SUNNY     71  40  32 S9        29.90F
AITKIN         SUNNY     68  36  30 S9        29.88F
PINE RIVER     SUNNY     68  37  32 S8        29.90F
BRAINERD       SUNNY     69  33  26 S14       29.89F
STAPLES        SUNNY     70  34  26 S12       29.87S
LONG PRAIRIE   FAIR      70  39  32 SE14      29.89S
LITTLE FALLS   SUNNY     70  23  17 S10       29.90S
LITCHFIELD     SUNNY     72  39  30 SE5       29.92F
BUFFALO        SUNNY     71  33  24 S9G18     29.94F
MAPLE LAKE     SUNNY     72  39  30 S8        29.93F
HUTCHINSON     SUNNY     72  42  33 S9G18     29.94F
$$
MNZ037-044-045-052-053-192300-
   East Central Minnesota

CITY           SKY/WX    TMP DP  RH WIND       PRES   REMARKS
PRINCETON      SUNNY     72  36  26 S9G20     29.93S
MORA           SUNNY     68  36  30 S12G18    29.94S
CAMBRIDGE      SUNNY     73  46  38 S12       29.93F
RUSH CITY      SUNNY     71  35  27 S9G17     29.94S
MOOSE LAKE     SUNNY     70  36  28 SW12G17   29.90F
HINCKLEY       FAIR      70  36  28 S8G17     29.93F
CLOQUET        CLOUDY    66  28  24 S7        29.92S
MCGREGOR       CLOUDY    68  34  28 S12       29.91S
$$
MNZ071>073-080-081-089-090-097-098-192300-
   Southwest Minnesota

CITY           SKY/WX    TMP DP  RH WIND       PRES   REMARKS
MONTEVIDEO     SUNNY     77  43  29 SW16      29.85F
GRANITE FALLS  SUNNY     76  46  34 S17G24    29.88F
CANBY          SUNNY     76  44  31 S14G20    29.86S
MARSHALL       SUNNY     75  46  35 S20G26    29.87F
REDWOOD FALLS  SUNNY     75  41  29 S21G26    29.90F
OLIVIA         SUNNY     73  45  35 S12G17    29.90F
PIPESTONE      SUNNY     72  45  37 S16       29.91S
WORTHINGTON    SUNNY     74  45  35 S13       29.95F
JACKSON        SUNNY     72  41  33 S9G18     29.97F
TRACY          SUNNY     75  46  35 S17G26    29.90F
SLAYTON        SUNNY     73  44  35 S16G25    29.92F
$$
MNZ065>067-074>077-082>085-091>093-192300-
   South Central Minnesota

CITY           SKY/WX    TMP DP  RH WIND       PRES   REMARKS
MANKATO        SUNNY     72  38  29 S14G20    29.96F
NEW ULM        SUNNY     72  39  30 S17G24    29.93F
ST JAMES       SUNNY     73  41  31 SE15      29.96F
FAIRMONT       SUNNY     72  42  34 S21       29.97F
GLENCOE        SUNNY     72  36  26 S12G26    29.93F
FARIBAULT      SUNNY     72  36  26 S13G21    29.98F
OWATONNA       SUNNY     70  39  32 S17       29.99F
WASECA         SUNNY     70  36  28 S15G23    30.00F
$$
MNZ078>079-086>088-094>096-192300-
   Southeast Minnesota

CITY           SKY/WX    TMP DP  RH WIND       PRES   REMARKS
ROCHESTER      SUNNY     69  38  32 S15       30.03F
RED WING       SUNNY     73  27  17 S14       29.98F
STANTON        SUNNY     72  33  23 S9        29.97F
DODGE CENTER   SUNNY     70  32  24 S12       30.02F
WINONA         SUNNY     72  36  26 CALM      30.03F
AUSTIN         SUNNY     68  36  30 S15       30.03F
PRESTON        SUNNY     68  33  27 S12G17    30.06S
$$
ABBREVIATIONS USED IN REMARKS
   TC - TEMPERATURES IN CELSIUS
  WCI - WIND CHILL INDEX
   HX - HEAT INDEX
  VSB - VISIBILITY
$$



USA.gov is the U.S. government's official web portal to all federal, state and local government web resources and services.